Time,TemperatureF,DewpointF,PressureIn,WindDirection,WindDirectionDegrees,WindSpeedMPH,WindSpeedGustMPH,Humidity,HourlyPrecipIn,Conditions,Clouds,dailyrainin,SoftwareType,DateUTC
2013-02-17 00:10:00,23.2,8.6,29.70,SW,227,5.0,0.0,53,0.00,BKN,BKN,0.00,WeatherDisplay:10.37,2013-02-17 05:10:00,
2013-02-17 00:20:00,23.0,8.0,29.70,SW,229,8.0,0.0,52,0.00,BKN,BKN,0.00,WeatherDisplay:10.37,2013-02-17 05:20:00,
2013-02-17 00:30:00,23.0,8.0,29.69,SW,224,2.0,0.0,52,0.00,BKN,BKN,0.00,WeatherDisplay:10.37,2013-02-17 05:30:00,
2013-02-17 00:40:00,22.6,7.6,29.67,WSW,238,3.0,0.0,52,0.00,BKN,BKN,0.00,WeatherDisplay:10.37,2013-02-17 05:40:00,
2013-02-17 00:50:00,22.5,6.7,29.66,WSW,244,3.0,0.0,50,0.00,BKN,BKN,0.00,WeatherDisplay:10.37,2013-02-17 05:50:00,
2013-02-17 00:59:00,22.5,6.6,29.64,WSW,237,6.0,0.0,50,0.00,BKN,BKN,0.00,WeatherDisplay:10.37,2013-02-17 05:59:00,
2013-02-17 01:10:00,22.1,6.3,29.67,WSW,242,6.0,0.0,50,0.00,BKN,BKN,0.00,WeatherDisplay:10.37,2013-02-17 06:10:00,
2013-02-17 01:20:00,22.1,6.7,29.68,SW,235,2.0,0.0,51,0.00,BKN,BKN,0.00,WeatherDisplay:10.37,2013-02-17 06:20:00,
2013-02-17 01:30:00,22.0,6.6,29.67,WSW,257,5.0,0.0,51,0.00,BKN,BKN,0.00,WeatherDisplay:10.37,2013-02-17 06:30:00,
2013-02-17 01:40:00,21.9,6.5,29.67,SW,234,1.0,0.0,51,0.00,BKN,BKN,0.00,WeatherDisplay:10.37,2013-02-17 06:40:00,
2013-02-17 01:50:00,21.9,7.0,29.67,SW,223,1.0,0.0,52,0.00,BKN,BKN,0.00,WeatherDisplay:10.37,2013-02-17 06:50:00,
2013-02-17 01:59:00,21.7,5.9,29.64,WSW,238,7.0,0.0,50,0.00,BKN,BKN,0.00,WeatherDisplay:10.37,2013-02-17 06:59:00,
2013-02-17 02:10:00,21.6,6.2,29.63,WSW,237,1.0,0.0,51,0.00,BKN,BKN,0.00,WeatherDisplay:10.37,2013-02-17 07:10:00,
2013-02-17 02:20:00,21.6,5.8,29.65,SW,220,5.0,0.0,50,0.00,BKN,BKN,0.00,WeatherDisplay:10.37,2013-02-17 07:20:00,
2013-02-17 02:30:00,21.4,5.2,29.65,SW,231,7.0,0.0,49,0.00,BKN,BKN,0.00,WeatherDisplay:10.37,2013-02-17 07:30:00,
2013-02-17 02:40:00,21.4,6.5,29.64,SW,230,3.0,0.0,52,0.00,BKN,BKN,0.00,WeatherDisplay:10.37,2013-02-17 07:40:00,
2013-02-17 02:50:00,21.2,5.9,29.64,SW,225,5.0,0.0,51,0.00,BKN,BKN,0.00,WeatherDisplay:10.37,2013-02-17 07:50:00,
2013-02-17 02:59:00,21.2,5.9,29.63,SSW,203,1.0,0.0,51,0.00,BKN,BKN,0.00,WeatherDisplay:10.37,2013-02-17 07:59:00,
2013-02-17 03:10:00,21.0,5.3,29.63,SW,230,7.0,0.0,50,0.00,BKN,BKN,0.00,WeatherDisplay:10.37,2013-02-17 08:10:00,
2013-02-17 03:20:00,20.8,5.1,29.64,SW,235,3.0,0.0,50,0.00,BKN,BKN,0.00,WeatherDisplay:10.37,2013-02-17 08:20:00,
2013-02-17 03:30:00,20.6,4.9,29.63,WSW,241,7.0,0.0,50,0.00,BKN,BKN,0.00,WeatherDisplay:10.37,2013-02-17 08:30:00,
2013-02-17 03:40:00,20.3,5.0,29.61,SW,223,5.0,0.0,51,0.00,BKN,BKN,0.00,WeatherDisplay:10.37,2013-02-17 08:40:00,
2013-02-17 03:50:00,19.9,3.8,29.59,SW,227,12.0,0.0,49,0.00,BKN,BKN,0.00,WeatherDisplay:10.37,2013-02-17 08:50:00,
2013-02-17 03:59:00,19.9,4.7,29.59,SW,223,3.0,0.0,51,0.00,BKN,BKN,0.00,WeatherDisplay:10.37,2013-02-17 08:59:00,
2013-02-17 04:10:00,19.8,4.1,29.60,SW,229,8.0,0.0,50,0.00,BKN,BKN,0.00,WeatherDisplay:10.37,2013-02-17 09:10:00,
2013-02-17 04:20:00,19.0,4.7,29.61,SW,229,5.0,0.0,53,0.00,BKN,BKN,0.00,WeatherDisplay:10.37,2013-02-17 09:20:00,
2013-02-17 04:30:00,18.9,5.7,29.60,WSW,237,5.0,0.0,56,0.00,BKN,BKN,0.00,WeatherDisplay:10.37,2013-02-17 09:30:00,
2013-02-17 04:40:00,18.5,5.8,29.58,SW,233,5.0,0.0,57,0.00,BKN,BKN,0.00,WeatherDisplay:10.37,2013-02-17 09:40:00,
2013-02-17 04:50:00,18.3,6.7,29.58,WSW,237,5.0,0.0,60,0.00,BKN,BKN,0.00,WeatherDisplay:10.37,2013-02-17 09:50:00,
2013-02-17 04:59:00,18.1,7.3,29.59,WSW,243,6.0,0.0,62,0.00,BKN,BKN,0.00,WeatherDisplay:10.37,2013-02-17 09:59:00,
2013-02-17 05:10:00,18.1,7.3,29.59,SW,232,6.0,0.0,62,0.00,BKN,BKN,0.00,WeatherDisplay:10.37,2013-02-17 10:10:00,
2013-02-17 05:20:00,17.8,8.3,29.58,SW,231,1.0,0.0,66,0.00,BKN,BKN,0.00,WeatherDisplay:10.37,2013-02-17 10:20:00,
2013-02-17 05:30:00,17.2,8.8,29.57,WSW,240,7.0,0.0,69,0.00,BKN,BKN,0.00,WeatherDisplay:10.37,2013-02-17 10:30:00,
2013-02-17 05:40:00,16.7,10.1,29.57,WSW,246,7.0,0.0,75,0.00,BKN,BKN,0.00,WeatherDisplay:10.37,2013-02-17 10:40:00,
2013-02-17 05:50:00,16.0,10.9,29.57,SW,233,7.0,0.0,80,0.00,BKN,BKN,0.00,WeatherDisplay:10.37,2013-02-17 10:50:00,
2013-02-17 05:59:00,15.3,10.8,29.56,WSW,240,7.0,0.0,82,0.00,BKN,BKN,0.00,WeatherDisplay:10.37,2013-02-17 10:59:00,
2013-02-17 06:10:00,15.4,11.2,29.57,SW,234,3.0,0.0,83,0.00,BKN,BKN,0.00,WeatherDisplay:10.37,2013-02-17 11:10:00,
2013-02-17 06:20:00,14.9,10.7,29.56,SW,225,5.0,0.0,83,0.00,BKN,BKN,0.00,WeatherDisplay:10.37,2013-02-17 11:20:00,
2013-02-17 06:30:00,15.3,11.0,29.55,WSW,238,5.0,0.0,83,0.00,BKN,BKN,0.00,WeatherDisplay:10.37,2013-02-17 11:30:00,
2013-02-17 06:40:00,14.7,10.5,29.55,WSW,244,7.0,0.0,83,0.00,BKN,BKN,0.00,WeatherDisplay:10.37,2013-02-17 11:40:00,
2013-02-17 06:50:00,14.5,10.6,29.52,SW,236,6.0,0.0,84,0.00,BKN,BKN,0.00,WeatherDisplay:10.37,2013-02-17 11:50:00,
2013-02-17 06:59:00,14.4,10.4,29.50,SW,218,8.0,0.0,84,0.00,BKN,BKN,0.00,WeatherDisplay:10.37,2013-02-17 11:59:00,
2013-02-17 07:10:00,14.2,10.2,29.50,SSW,208,5.0,0.0,84,0.00,BKN,BKN,0.00,WeatherDisplay:10.37,2013-02-17 12:10:00,
2013-02-17 07:20:00,14.4,10.4,29.52,WSW,239,2.0,0.0,84,0.00,BKN,BKN,0.00,WeatherDisplay:10.37,2013-02-17 12:20:00,
2013-02-17 07:30:00,14.4,10.4,29.51,SW,231,7.0,0.0,84,0.00,BKN,BKN,0.00,WeatherDisplay:10.37,2013-02-17 12:30:00,
2013-02-17 07:40:00,14.3,10.3,29.50,SW,235,5.0,0.0,84,0.00,BKN,BKN,0.00,WeatherDisplay:10.37,2013-02-17 12:40:00,
2013-02-17 07:50:00,14.4,10.4,29.48,WSW,253,6.0,0.0,84,0.00,BKN,BKN,0.00,WeatherDisplay:10.37,2013-02-17 12:50:00,
2013-02-17 07:59:00,14.4,10.4,29.50,SW,221,9.0,0.0,84,0.00,BKN,BKN,0.00,WeatherDisplay:10.37,2013-02-17 12:59:00,
2013-02-17 08:10:00,14.4,10.4,29.49,WSW,241,10.0,0.0,84,0.00,BKN,BKN,0.00,WeatherDisplay:10.37,2013-02-17 13:10:00,
2013-02-17 08:20:00,14.4,10.4,29.47,SW,225,8.0,0.0,84,0.00,BKN,BKN,0.00,WeatherDisplay:10.37,2013-02-17 13:20:00,
2013-02-17 08:30:00,14.4,10.4,29.45,West,264,7.0,0.0,84,0.00,BKN,BKN,0.00,WeatherDisplay:10.37,2013-02-17 13:30:00,
2013-02-17 08:40:00,14.1,10.1,29.44,SSW,208,2.0,0.0,84,0.00,BKN,BKN,0.00,WeatherDisplay:10.37,2013-02-17 13:40:00,
2013-02-17 08:50:00,14.3,10.3,29.43,SW,231,3.0,0.0,84,0.00,BKN,BKN,0.00,WeatherDisplay:10.37,2013-02-17 13:50:00,
2013-02-17 08:59:00,14.2,10.3,29.43,SW,234,5.0,0.0,84,0.00,BKN,BKN,0.00,WeatherDisplay:10.37,2013-02-17 13:59:00,
2013-02-17 09:10:00,14.4,10.4,29.43,SSW,208,5.0,0.0,84,0.00,BKN,BKN,0.00,WeatherDisplay:10.37,2013-02-17 14:10:00,
2013-02-17 09:20:00,14.4,10.4,29.44,SW,230,1.0,0.0,84,0.00,BKN,BKN,0.00,WeatherDisplay:10.37,2013-02-17 14:20:00,
2013-02-17 09:30:00,14.4,10.4,29.43,SW,230,6.0,0.0,84,0.00,BKN,BKN,0.00,WeatherDisplay:10.37,2013-02-17 14:30:00,
2013-02-17 09:40:00,14.4,10.4,29.42,SW,228,6.0,0.0,84,0.00,BKN,BKN,0.00,WeatherDisplay:10.37,2013-02-17 14:40:00,
2013-02-17 09:50:00,14.5,10.6,29.40,SW,229,6.0,0.0,84,0.00,BKN,BKN,0.00,WeatherDisplay:10.37,2013-02-17 14:50:00,
2013-02-17 09:59:00,14.7,10.8,29.39,SW,224,6.0,0.0,84,0.00,BKN,BKN,0.00,WeatherDisplay:10.37,2013-02-17 14:59:00,
2013-02-17 10:10:00,14.7,10.8,29.39,SW,216,10.0,0.0,84,0.00,BKN,BKN,0.00,WeatherDisplay:10.37,2013-02-17 15:10:00,
2013-02-17 10:20:00,14.9,10.9,29.42,SW,221,13.0,0.0,84,0.00,BKN,BKN,0.00,WeatherDisplay:10.37,2013-02-17 15:20:00,
2013-02-17 10:30:00,14.9,10.9,29.40,SW,231,0.0,0.0,84,0.00,BKN,BKN,0.00,WeatherDisplay:10.37,2013-02-17 15:30:00,
2013-02-17 10:40:00,14.9,10.9,29.40,WSW,245,5.0,0.0,84,0.00,BKN,BKN,0.00,WeatherDisplay:10.37,2013-02-17 15:40:00,
2013-02-17 10:50:00,14.9,10.7,29.39,WSW,237,12.0,0.0,83,0.00,BKN,BKN,0.00,WeatherDisplay:10.37,2013-02-17 15:50:00,
2013-02-17 10:59:00,14.8,10.6,29.39,WSW,239,13.0,0.0,83,0.00,BKN,BKN,0.00,WeatherDisplay:10.37,2013-02-17 15:59:00,
2013-02-17 11:10:00,14.5,10.3,29.40,SW,229,9.0,0.0,83,0.00,BKN,BKN,0.00,WeatherDisplay:10.37,2013-02-17 16:10:00,
2013-02-17 11:20:00,14.9,10.9,29.39,SW,229,3.0,0.0,84,0.00,BKN,BKN,0.00,WeatherDisplay:10.37,2013-02-17 16:20:00,
2013-02-17 11:30:00,14.9,10.9,29.39,SW,220,8.0,0.0,84,0.00,BKN,BKN,0.00,WeatherDisplay:10.37,2013-02-17 16:30:00,
2013-02-17 11:40:00,15.3,11.6,29.39,WSW,241,2.0,0.0,85,0.00,BKN,BKN,0.00,WeatherDisplay:10.37,2013-02-17 16:40:00,
2013-02-17 11:50:00,15.3,11.3,29.39,SW,226,5.0,0.0,84,0.00,BKN,BKN,0.00,WeatherDisplay:10.37,2013-02-17 16:50:00,
2013-02-17 11:59:00,15.8,11.8,29.38,WSW,245,7.0,0.0,84,0.00,BKN,BKN,0.00,WeatherDisplay:10.37,2013-02-17 16:59:00,
2013-02-17 12:10:00,15.4,11.2,29.37,SW,231,9.0,0.0,83,0.00,BKN,BKN,0.00,WeatherDisplay:10.37,2013-02-17 17:10:00,
2013-02-17 12:20:00,15.8,11.6,29.38,WSW,242,6.0,0.0,83,0.00,BKN,BKN,0.00,WeatherDisplay:10.37,2013-02-17 17:20:00,
2013-02-17 12:30:00,16.3,12.1,29.38,SW,222,7.0,0.0,83,0.00,BKN,BKN,0.00,WeatherDisplay:10.37,2013-02-17 17:30:00,
2013-02-17 12:40:00,16.2,11.7,29.37,SW,226,8.0,0.0,82,0.00,BKN,BKN,0.00,WeatherDisplay:10.37,2013-02-17 17:40:00,
2013-02-17 12:50:00,16.3,11.0,29.37,SW,234,6.0,0.0,79,0.00,BKN,BKN,0.00,WeatherDisplay:10.37,2013-02-17 17:50:00,
2013-02-17 12:59:00,16.5,10.9,29.36,SW,214,8.0,0.0,78,0.00,BKN,BKN,0.00,WeatherDisplay:10.37,2013-02-17 17:59:00,
2013-02-17 13:10:00,16.3,11.0,29.36,SW,233,9.0,0.0,79,0.00,BKN,BKN,0.00,WeatherDisplay:10.37,2013-02-17 18:10:00,
2013-02-17 13:20:00,16.3,11.2,29.38,SW,227,6.0,0.0,80,0.00,BKN,BKN,0.00,WeatherDisplay:10.37,2013-02-17 18:20:00,
2013-02-17 13:30:00,16.3,12.1,29.38,SW,220,9.0,0.0,83,0.00,BKN,BKN,0.00,WeatherDisplay:10.37,2013-02-17 18:30:00,
2013-02-17 13:40:00,16.9,13.2,29.38,SW,226,13.0,0.0,85,0.00,BKN,BKN,0.00,WeatherDisplay:10.37,2013-02-17 18:40:00,
2013-02-17 13:50:00,17.2,13.5,29.38,SW,216,7.0,0.0,85,0.00,BKN,BKN,0.00,WeatherDisplay:10.37,2013-02-17 18:50:00,
2013-02-17 13:59:00,16.8,12.0,29.37,SW,215,7.0,0.0,81,0.00,BKN,BKN,0.00,WeatherDisplay:10.37,2013-02-17 18:59:00,
2013-02-17 14:10:00,16.5,12.3,29.38,SSW,203,5.0,0.0,83,0.00,BKN,BKN,0.00,WeatherDisplay:10.37,2013-02-17 19:10:00,
2013-02-17 14:20:00,16.3,11.5,29.39,SSW,209,5.0,0.0,81,0.00,BKN,BKN,0.00,WeatherDisplay:10.37,2013-02-17 19:20:00,
2013-02-17 14:30:00,16.3,12.1,29.39,SW,223,7.0,0.0,83,0.00,BKN,BKN,0.00,WeatherDisplay:10.37,2013-02-17 19:30:00,
2013-02-17 14:40:00,17.2,13.0,29.39,SW,214,7.0,0.0,83,0.00,BKN,BKN,0.00,WeatherDisplay:10.37,2013-02-17 19:40:00,
2013-02-17 14:50:00,17.2,12.7,29.39,WSW,238,7.0,0.0,82,0.00,BKN,BKN,0.00,WeatherDisplay:10.37,2013-02-17 19:50:00,
2013-02-17 14:59:00,17.1,12.8,29.39,SSW,199,5.0,0.0,83,0.00,BKN,BKN,0.00,WeatherDisplay:10.37,2013-02-17 19:59:00,
2013-02-17 15:10:00,16.9,12.1,29.39,SW,225,3.0,0.0,81,0.00,BKN,BKN,0.00,WeatherDisplay:10.37,2013-02-17 20:10:00,
2013-02-17 15:20:00,17.1,12.2,29.40,SSW,210,6.0,0.0,81,0.00,BKN,BKN,0.00,WeatherDisplay:10.37,2013-02-17 20:20:00,
2013-02-17 15:30:00,16.7,10.1,29.40,WSW,256,12.0,0.0,75,0.00,BKN,BKN,0.00,WeatherDisplay:10.37,2013-02-17 20:30:00,
2013-02-17 15:40:00,16.6,9.7,29.41,SSW,202,2.0,0.0,74,0.00,BKN,BKN,0.00,WeatherDisplay:10.37,2013-02-17 20:40:00,
2013-02-17 15:50:00,16.1,12.1,29.41,SSW,193,9.0,0.0,84,0.00,BKN,BKN,0.00,WeatherDisplay:10.37,2013-02-17 20:50:00,
2013-02-17 15:59:00,16.0,11.7,29.42,SSW,204,9.0,0.0,83,0.00,BKN,BKN,0.00,WeatherDisplay:10.37,2013-02-17 20:59:00,
2013-02-17 16:10:00,16.3,11.5,29.43,SSW,207,7.0,0.0,81,0.00,BKN,BKN,0.00,WeatherDisplay:10.37,2013-02-17 21:10:00,
2013-02-17 16:20:00,16.2,9.6,29.44,SSW,198,8.0,0.0,75,0.00,BKN,BKN,0.00,WeatherDisplay:10.37,2013-02-17 21:20:00,
2013-02-17 16:30:00,15.9,8.8,29.44,SSW,203,15.0,0.0,73,0.00,BKN,BKN,0.00,WeatherDisplay:10.37,2013-02-17 21:30:00,
2013-02-17 16:40:00,15.4,9.5,29.44,SSW,200,6.0,0.0,77,0.00,BKN,BKN,0.00,WeatherDisplay:10.37,2013-02-17 21:40:00,
2013-02-17 16:50:00,15.5,7.8,29.44,SW,225,7.0,0.0,71,0.00,BKN,BKN,0.00,WeatherDisplay:10.37,2013-02-17 21:50:00,
2013-02-17 16:59:00,15.2,11.0,29.45,SW,220,10.0,0.0,83,0.00,BKN,BKN,0.00,WeatherDisplay:10.37,2013-02-17 21:59:00,
2013-02-17 17:10:00,15.2,11.2,29.46,SSW,205,9.0,0.0,84,0.00,BKN,BKN,0.00,WeatherDisplay:10.37,2013-02-17 22:10:00,
2013-02-17 17:20:00,14.9,10.7,29.46,SSW,204,9.0,0.0,83,0.00,BKN,BKN,0.00,WeatherDisplay:10.37,2013-02-17 22:20:00,
2013-02-17 17:30:00,15.3,10.5,29.47,SSW,194,7.0,0.0,81,0.00,BKN,BKN,0.00,WeatherDisplay:10.37,2013-02-17 22:30:00,
2013-02-17 17:40:00,15.8,9.9,29.46,SSW,201,3.0,0.0,77,0.00,BKN,BKN,0.00,WeatherDisplay:10.37,2013-02-17 22:40:00,
2013-02-17 17:50:00,15.8,9.0,29.47,SW,217,5.0,0.0,74,0.00,BKN,BKN,0.00,WeatherDisplay:10.37,2013-02-17 22:50:00,
2013-02-17 17:59:00,16.1,9.0,29.48,SSW,194,9.0,0.0,73,0.00,BKN,BKN,0.00,WeatherDisplay:10.37,2013-02-17 22:59:00,
2013-02-17 18:10:00,15.8,9.9,29.50,SW,219,8.0,0.0,77,0.01,RA,RA,0.01,WeatherDisplay:10.37,2013-02-17 23:10:00,
2013-02-17 18:20:00,15.3,9.0,29.50,SW,218,7.0,0.0,76,0.00,BKN,BKN,0.01,WeatherDisplay:10.37,2013-02-17 23:20:00,
2013-02-17 18:30:00,14.9,7.2,29.50,South,174,8.0,0.0,71,0.00,BKN,BKN,0.01,WeatherDisplay:10.37,2013-02-17 23:30:00,
2013-02-17 18:40:00,14.4,6.7,29.50,South,191,6.0,0.0,71,0.00,BKN,BKN,0.01,WeatherDisplay:10.37,2013-02-17 23:40:00,
2013-02-17 18:50:00,14.4,7.0,29.48,SSW,201,7.0,0.0,72,0.00,BKN,BKN,0.01,WeatherDisplay:10.37,2013-02-17 23:50:00,
2013-02-17 18:59:00,14.2,7.4,29.48,SSW,212,5.0,0.0,74,0.00,BKN,BKN,0.01,WeatherDisplay:10.37,2013-02-17 23:59:00,
2013-02-17 19:10:00,14.2,6.2,29.48,SSW,195,15.0,0.0,70,0.00,BKN,BKN,0.01,WeatherDisplay:10.37,2013-02-18 00:10:00,
2013-02-17 19:20:00,13.9,6.6,29.47,SSW,192,6.0,0.0,72,0.00,BKN,BKN,0.01,WeatherDisplay:10.37,2013-02-18 00:20:00,
2013-02-17 19:30:00,14.0,5.7,29.48,SSW,194,10.0,0.0,69,0.00,BKN,BKN,0.01,WeatherDisplay:10.37,2013-02-18 00:30:00,
2013-02-17 19:40:00,13.8,6.1,29.51,SSW,198,8.0,0.0,71,0.00,BKN,BKN,0.01,WeatherDisplay:10.37,2013-02-18 00:40:00,
2013-02-17 19:50:00,14.0,6.0,29.51,SSW,205,5.0,0.0,70,0.00,BKN,BKN,0.01,WeatherDisplay:10.37,2013-02-18 00:50:00,
2013-02-17 19:59:00,14.0,5.4,29.50,South,191,7.0,0.0,68,0.00,BKN,BKN,0.01,WeatherDisplay:10.37,2013-02-18 00:59:00,
2013-02-17 20:10:00,13.8,5.5,29.50,South,188,2.0,0.0,69,0.00,BKN,BKN,0.01,WeatherDisplay:10.37,2013-02-18 01:10:00,
2013-02-17 20:20:00,13.6,5.0,29.51,SSW,204,6.0,0.0,68,0.00,BKN,BKN,0.01,WeatherDisplay:10.37,2013-02-18 01:20:00,
2013-02-17 20:30:00,13.5,4.5,29.53,SSW,212,7.0,0.0,67,0.00,BKN,BKN,0.01,WeatherDisplay:10.37,2013-02-18 01:30:00,
2013-02-17 20:40:00,13.1,5.8,29.53,South,184,5.0,0.0,72,0.00,BKN,BKN,0.01,WeatherDisplay:10.37,2013-02-18 01:40:00,
2013-02-17 20:50:00,12.9,4.0,29.53,South,191,9.0,0.0,67,0.00,BKN,BKN,0.01,WeatherDisplay:10.37,2013-02-18 01:50:00,
2013-02-17 20:59:00,12.7,3.8,29.55,SSW,209,7.0,0.0,67,0.00,BKN,BKN,0.01,WeatherDisplay:10.37,2013-02-18 01:59:00,
2013-02-17 21:10:00,12.6,4.0,29.55,SSW,207,12.0,0.0,68,0.00,BKN,BKN,0.01,WeatherDisplay:10.37,2013-02-18 02:10:00,
2013-02-17 21:20:00,12.2,3.0,29.55,SSW,202,3.0,0.0,66,0.00,BKN,BKN,0.01,WeatherDisplay:10.37,2013-02-18 02:20:00,
2013-02-17 21:30:00,12.2,4.0,29.55,SW,215,6.0,0.0,69,0.00,BKN,BKN,0.01,WeatherDisplay:10.37,2013-02-18 02:30:00,
2013-02-17 21:40:00,11.8,2.7,29.56,SSW,212,6.0,0.0,66,0.00,BKN,BKN,0.01,WeatherDisplay:10.37,2013-02-18 02:40:00,
2013-02-17 21:50:00,11.8,2.7,29.55,SW,215,6.0,0.0,66,0.00,BKN,BKN,0.01,WeatherDisplay:10.37,2013-02-18 02:50:00,
2013-02-17 21:59:00,11.7,2.8,29.56,South,186,9.0,0.0,67,0.00,BKN,BKN,0.01,WeatherDisplay:10.37,2013-02-18 02:59:00,
2013-02-17 22:10:00,11.7,2.8,29.56,SSW,205,7.0,0.0,67,0.00,BKN,BKN,0.01,WeatherDisplay:10.37,2013-02-18 03:10:00,
2013-02-17 22:20:00,11.3,2.1,29.56,SSW,202,7.0,0.0,66,0.00,BKN,BKN,0.01,WeatherDisplay:10.37,2013-02-18 03:20:00,
2013-02-17 22:30:00,11.3,2.8,29.57,SW,218,7.0,0.0,68,0.00,BKN,BKN,0.01,WeatherDisplay:10.37,2013-02-18 03:30:00,
2013-02-17 22:40:00,10.8,6.1,29.59,SSW,207,7.0,0.0,81,0.00,BKN,BKN,0.01,WeatherDisplay:10.37,2013-02-18 03:40:00,
2013-02-17 22:50:00,10.8,6.1,29.58,SSW,196,6.0,0.0,81,0.00,BKN,BKN,0.01,WeatherDisplay:10.37,2013-02-18 03:50:00,
2013-02-17 22:59:00,10.8,6.1,29.58,SSW,196,7.0,0.0,81,0.00,BKN,BKN,0.01,WeatherDisplay:10.37,2013-02-18 03:59:00,
2013-02-17 23:10:00,10.8,6.1,29.58,SSW,194,3.0,0.0,81,0.00,BKN,BKN,0.01,WeatherDisplay:10.37,2013-02-18 04:10:00,
2013-02-17 23:20:00,10.8,5.8,29.58,South,191,6.0,0.0,80,0.00,BKN,BKN,0.01,WeatherDisplay:10.37,2013-02-18 04:20:00,
2013-02-17 23:30:00,10.8,5.2,29.60,SSW,194,8.0,0.0,78,0.00,BKN,BKN,0.01,WeatherDisplay:10.37,2013-02-18 04:30:00,
2013-02-17 23:40:00,10.8,4.7,29.61,SSW,196,9.0,0.0,76,0.00,BKN,BKN,0.01,WeatherDisplay:10.37,2013-02-18 04:40:00,
2013-02-17 23:50:00,10.8,4.7,29.60,South,180,7.0,0.0,76,0.00,BKN,BKN,0.01,WeatherDisplay:10.37,2013-02-18 04:50:00,
2013-02-17 23:59:00,10.8,3.5,29.60,SSW,207,6.0,0.0,72,0.00,RA,RA,0.00,WeatherDisplay:10.37,2013-02-18 04:59:00,